Tracking 31027 objects as of 19-Jul-2025
HD Live streaming from Space Station
objects crossing your sky now

FLOCK 4Q 20

Track FLOCK 4Q 20 now!
10-day predictions
FLOCK 4Q 20 is classified as:


NORAD ID: 58313
Int'l Code: 2023-174BK
Perigee: 448.5 km
Apogee: 458.9 km
Inclination: 97.4 °
Period: 93.5 minutes
Semi major axis: 6824 km
RCS: Unknown
Launch date: November 11, 2023
Source: United States (US)
Launch site: AIR FORCE WESTERN TEST RANGE (AFWTR)
Your satellite tracking list
FENGYUN 1C DEB
Track 1 satellite(s)




NASA's NSSDC Master Catalog

Two Line Element Set (TLE):
1 58313U 23174BK  25199.86425015  .00016974  00000-0  42875-3 0  9990
2 58313  97.4188 281.3542 0007627 251.5683 108.4734 15.39857724 94388
Source of the keplerian elements: AFSPC